Weather History for Woodward, OK

Change the Weather History Date:

Sunday, February 3, 2013

  Actual Average (KGAG) Record (KGAG)
Temperature  
Mean Temperature 46 °F -  
Max Temperature 64 °F 51 °F 77 °F (1962)
Min Temperature 28 °F 23 °F -7 °F (1989)
Degree Days  
Heating Degree Days 19    
Moisture  
Dew Point 22 °F    
Average Humidity 40    
Maximum Humidity 74    
Minimum Humidity 14    
Precipitation  
Precipitation 0.00 in - - ()
Sea Level Pressure  
Sea Level Pressure 30.12 in    
Wind  
Wind Speed 11 mph (South)    
Max Wind Speed 29 mph    
Max Gust Speed 34 mph    
Visibility 10 miles    
Events      
Averages and records for this station are not official NWS values.
T = Trace of Precipitation, MM = Missing Value Source: NWS Daily Summary

Daily Weather History Graph

Daily Weather History Graph

Search for Another Location

Airport:

Trip Planner

Search our weather history database for the weather conditions in past years. The results will help you decide how hot, cold, wet, or windy it might be!

Date:

Astronomy

Feb. 03, 2013 Rise Set
Actual Time 7:37 AM CST 6:06 PM CST
Civil Twilight 7:10 AM CST 6:33 PM CST
Nautical Twilight 6:39 AM CST 7:04 PM CST
Astronomical Twilight 6:09 AM CST 7:34 PM CST
Moon 1:06 AM CST (2/3) 11:46 AM CST (2/3)
Length of Visible Light 11h 23m
Length of Day
10h 29m
Waning Gibbous, 48% of the Moon is Illuminated
Feb 3
Waning Gibbous
Feb 10
New
Feb 17
First Quarter
Feb 25
Full
Mar 4
Last Quarter

Hourly Weather History & Observations

Time (CST) Temp. Windchill Dew Point Humidity Pressure Visibility Wind Dir Wind Speed Gust Speed Precip Events Conditions
12:15 AM 35.6 °F 28.0 °F 23.0 °F 60% 30.32 in 10.0 mi SW 10.4 mph - N/A   Clear
12:35 AM 35.6 °F 28.0 °F 23.0 °F 60% 30.32 in 10.0 mi SW 10.4 mph - N/A   Clear
12:55 AM 35.6 °F 28.0 °F 23.0 °F 60% 30.32 in 10.0 mi SW 10.4 mph - N/A   Clear
1:15 AM 35.6 °F 28.6 °F 23.0 °F 60% 30.32 in 10.0 mi SW 9.2 mph - N/A   Clear
1:35 AM 33.8 °F 27.0 °F 23.0 °F 65% 30.32 in 10.0 mi SW 8.1 mph - N/A   Clear
1:55 AM 33.8 °F 27.7 °F 23.0 °F 65% 30.31 in 10.0 mi SSW 6.9 mph - N/A   Clear
2:15 AM 32.0 °F 26.4 °F 23.0 °F 69% 30.31 in 10.0 mi SSW 5.8 mph - N/A   Clear
2:35 AM 33.8 °F 29.6 °F 23.0 °F 65% 30.31 in 10.0 mi SW 4.6 mph - N/A   Clear
2:55 AM 33.8 °F 30.8 °F 23.0 °F 65% 30.30 in 10.0 mi SW 3.5 mph - N/A   Clear
3:15 AM 32.0 °F 27.5 °F 23.0 °F 69% 30.30 in 10.0 mi SW 4.6 mph - N/A   Clear
3:35 AM 33.8 °F 30.8 °F 23.0 °F 65% 30.30 in 10.0 mi SSW 3.5 mph - N/A   Clear
3:55 AM 33.8 °F 29.6 °F 23.0 °F 65% 30.29 in 10.0 mi SSW 4.6 mph - N/A   Clear
4:15 AM 33.8 °F 27.0 °F 23.0 °F 65% 30.29 in 10.0 mi SW 8.1 mph - N/A   Clear
4:35 AM 32.0 °F 25.6 °F 23.0 °F 69% 30.29 in 10.0 mi WSW 6.9 mph - N/A   Clear
4:55 AM 32.0 °F 25.6 °F 23.0 °F 69% 30.29 in 10.0 mi SW 6.9 mph - N/A   Clear
5:15 AM 32.0 °F 26.4 °F 23.0 °F 69% 30.29 in 10.0 mi SW 5.8 mph - N/A   Clear
5:35 AM 32.0 °F 26.4 °F 23.0 °F 69% 30.29 in 10.0 mi SSW 5.8 mph - N/A   Clear
5:55 AM 33.8 °F 29.6 °F 23.0 °F 65% 30.28 in 10.0 mi SSW 4.6 mph - N/A   Clear
6:15 AM 32.0 °F 27.5 °F 23.0 °F 69% 30.28 in 10.0 mi SE 4.6 mph - N/A   Clear
6:35 AM 32.0 °F 28.7 °F 23.0 °F 69% 30.28 in 10.0 mi SE 3.5 mph - N/A   Clear
6:55 AM 30.2 °F 26.7 °F 21.2 °F 69% 30.29 in 10.0 mi NNE 3.5 mph - N/A   Clear
7:15 AM 28.4 °F - 21.2 °F 74% 30.29 in 10.0 mi Calm Calm - N/A   Clear
7:55 AM 32.0 °F 24.2 °F 23.0 °F 69% 30.28 in 10.0 mi East 9.2 mph - N/A   Clear
8:15 AM 35.6 °F 29.2 °F 23.0 °F 60% 30.28 in 10.0 mi ESE 8.1 mph - N/A   Clear
8:35 AM 42.8 °F 37.0 °F 24.8 °F 49% 30.28 in 10.0 mi ESE 10.4 mph - N/A   Clear
8:55 AM 44.6 °F 38.4 °F 23.0 °F 43% 30.27 in 10.0 mi ESE 12.7 mph - N/A   Clear
9:15 AM 46.4 °F 40.4 °F 23.0 °F 40% 30.27 in 10.0 mi ESE 13.8 mph - N/A   Clear
9:35 AM 46.4 °F 39.8 °F 23.0 °F 40% 30.26 in 10.0 mi ESE 16.1 mph - N/A   Clear
9:55 AM 48.2 °F - 21.2 °F 34% 30.26 in 10.0 mi ESE 19.6 mph 23.0 mph N/A   Clear
10:15 AM 50.0 °F - 23.0 °F 35% 30.25 in 10.0 mi ESE 16.1 mph 23.0 mph N/A   Clear
10:35 AM 51.8 °F - 23.0 °F 33% 30.25 in 10.0 mi SE 18.4 mph 21.9 mph N/A   Clear
10:55 AM 51.8 °F - 23.0 °F 33% 30.24 in 10.0 mi SE 13.8 mph - N/A   Clear
11:15 AM 53.6 °F - 23.0 °F 30% 30.23 in 10.0 mi ESE 15.0 mph - N/A   Clear
11:35 AM 55.4 °F - 23.0 °F 29% 30.21 in 10.0 mi SE 12.7 mph - N/A   Clear
11:55 AM 57.2 °F - 23.0 °F 27% 30.19 in 10.0 mi SSE 15.0 mph 19.6 mph N/A   Clear
12:15 PM 59.0 °F - 23.0 °F 25% 30.18 in 10.0 mi South 15.0 mph 19.6 mph N/A   Clear
12:35 PM 59.0 °F - 23.0 °F 25% 30.15 in 10.0 mi South 15.0 mph 18.4 mph N/A   Clear
12:55 PM 60.8 °F - 23.0 °F 23% 30.13 in 10.0 mi South 17.3 mph 21.9 mph N/A   Clear
1:15 PM 62.6 °F - 23.0 °F 22% 30.11 in 10.0 mi South 13.8 mph - N/A   Clear
1:35 PM 64.4 °F - 23.0 °F 21% 30.09 in 10.0 mi SSW 19.6 mph 24.2 mph N/A   Clear
1:55 PM 64.4 °F - 21.2 °F 19% 30.07 in 10.0 mi SSW 16.1 mph 24.2 mph N/A   Clear
2:15 PM 64.4 °F - 19.4 °F 18% 30.04 in 10.0 mi South 19.6 mph 26.5 mph N/A   Clear
2:35 PM 64.4 °F - 15.8 °F 15% 30.03 in 10.0 mi South 27.6 mph 33.4 mph N/A   Clear
2:55 PM 64.4 °F - 14.0 °F 14% 30.02 in 10.0 mi South 20.7 mph 28.8 mph N/A   Clear
3:15 PM 64.4 °F - 14.0 °F 14% 30.00 in 10.0 mi South 28.8 mph 34.5 mph N/A   Clear
3:35 PM 64.4 °F - 15.8 °F 15% 30.00 in 10.0 mi SSW 19.6 mph 31.1 mph N/A   Clear
3:55 PM 62.6 °F - 17.6 °F 18% 29.99 in 10.0 mi SSW 20.7 mph 32.2 mph N/A   Clear
4:15 PM 62.6 °F - 17.6 °F 18% 29.98 in 10.0 mi South 23.0 mph 32.2 mph N/A   Clear
4:35 PM 62.6 °F - 19.4 °F 19% 29.97 in 10.0 mi South 21.9 mph 27.6 mph N/A   Clear
4:55 PM 60.8 °F - 19.4 °F 20% 29.96 in 10.0 mi South 19.6 mph 26.5 mph N/A   Clear
5:15 PM 60.8 °F - 19.4 °F 20% 29.95 in 10.0 mi South 18.4 mph 27.6 mph N/A   Clear
5:35 PM 60.8 °F - 19.4 °F 20% 29.95 in 10.0 mi South 13.8 mph - N/A   Clear
5:55 PM 59.0 °F - 17.6 °F 20% 29.94 in 10.0 mi South 13.8 mph - N/A   Clear
6:15 PM 59.0 °F - 15.8 °F 19% 29.94 in 10.0 mi South 13.8 mph - N/A   Clear
6:35 PM 59.0 °F - 14.0 °F 17% 29.93 in 10.0 mi South 12.7 mph - N/A   Clear
6:55 PM 59.0 °F - 14.0 °F 17% 29.93 in 10.0 mi South 13.8 mph - N/A   Clear
7:15 PM 59.0 °F - 15.8 °F 19% 29.93 in 10.0 mi South 15.0 mph 19.6 mph N/A   Clear
7:35 PM 59.0 °F - 17.6 °F 20% 29.93 in 10.0 mi South 16.1 mph - N/A   Clear
7:55 PM 57.2 °F - 19.4 °F 23% 29.92 in 10.0 mi South 15.0 mph - N/A   Clear
8:15 PM 57.2 °F - 21.2 °F 25% 29.91 in 10.0 mi South 13.8 mph - N/A   Clear
8:35 PM 55.4 °F - 21.2 °F 26% 29.90 in 10.0 mi South 15.0 mph - N/A   Clear
8:55 PM 55.4 °F - 23.0 °F 29% 29.89 in 10.0 mi South 16.1 mph 20.7 mph N/A   Clear
9:15 PM 55.4 °F - 23.0 °F 29% 29.89 in 10.0 mi South 15.0 mph 21.9 mph N/A   Clear
9:55 PM 55.4 °F - 23.0 °F 29% 29.88 in 10.0 mi South 13.8 mph 21.9 mph N/A   Clear
10:15 PM 55.4 °F - 24.8 °F 31% 29.88 in 10.0 mi South 12.7 mph 18.4 mph N/A   Clear
10:35 PM 55.4 °F - 26.6 °F 33% 29.88 in 10.0 mi SSW 13.8 mph - N/A   Clear
10:55 PM 55.4 °F - 26.6 °F 33% 29.86 in 10.0 mi South 11.5 mph - N/A   Clear
11:15 PM 55.4 °F - 28.4 °F 36% 29.86 in 10.0 mi South 16.1 mph - N/A   Scattered Clouds
11:35 PM 55.4 °F - 28.4 °F 36% 29.84 in 10.0 mi South 15.0 mph 24.2 mph N/A   Clear
11:55 PM 55.4 °F - 28.4 °F 36% 29.84 in 10.0 mi South 15.0 mph 20.7 mph N/A   Clear